SL-3 R/B

Satellite information

Favourite Embed

Satellite Type and Status

ROCKET BODYIN ORBIT

Key statistics

Satellite SL-3 R/B at a glance.

Uptime

20103

Days in orbit

Revolutions

≈ 14.1

Per day

Orbit

LEO

Low Earth Orbit

Inclination

81.2

Latest

Satellite identification and parameters

Extended collection of information and parameters for SL-3 R/B.

Object identification

Identified? True

Debris? False

Object name: SL-3 R/B

International designator: 1970-047B

Object number (NORAD): 4420

Object ID (CCSDS): 4420

Country: COMMONWEALTH OF INDEPENDENT STATES (CIS)

Current information (Y/N): Y

RCS size: LARGE

Orbital parameters

Period: 101.944 minutes

Inclination: 81.2315 deg

SMA: 7228.812 km

Apoapsis: 913.691 km

Periapsis: 787.663 km

RAAN: 335.3794 deg

Eccentricy: 0.0087171

Argument of periapsis: 171.4072 deg

Mean anomaly: 188.8618 deg

Mean motion: 14.12545188 rev/day

Mean motion (dot): 0.00000048 rev/day2

B* drag term: 0.000018041 1/REarth

Two-line elements (TLE)

Creation date: July 6, 2025, 6:05 p.m.

Reference frame: TEME

Reference center: EARTH

Epoch: July 6, 2025, 11:58 a.m. UTC

TLE line 0: 0 SL-3 R/B

TLE line 1: 1 04420U 70047B 25187.49913595 .00000048 00000-0 18041-4 0 9996

TLE line 2: 2 04420 81.2315 335.3794 0087171 171.4072 188.8618 14.12545188833218

Live tracking on map

Real-time ground track for satellite SL-3 R/B.

In-orbit conjunctions

A list of the most updated potential collisions computed for object SL-3 R/B.

Target Orbit TCA Probability of collision Miss distance Type
FENGYUN 1C DEB SSO 2025-06-05 05:01:03 0.0001620436 143.0 (m) DEBRIS
NOAA 16 DEB SSO 2025-01-29 14:19:54 0.0001619675 38.0 (m) DEBRIS
DELTA 1 DEB SSO 2024-12-31 11:26:28 0.006652207 21.0 (m) DEBRIS
DELTA 1 DEB SSO 2024-10-11 01:11:30 0.0001931591 690.0 (m) DEBRIS
METEOR 2-11 DEB LEO 2024-08-19 15:46:11 0.0001135201 398.0 (m) DEBRIS

Associated space launch

The Meteor-1 series was the first series of Soviet meteorological satellites.

SL-3 R/B was lifted into orbit during the mission ‘Vostok 8A92M | Meteor-1 5 (17L)’, on board a Vostok 8A92M space rocket.

The launch took place on June 23, 1970, 2:15 p.m. from 41/1.

For more information about the launch, click the button.

Launch to space Vostok 8A92M | Meteor-1 5 (17L)
Vostok 8A92M | Meteor-1 5 (17L)

Agency: N/A

Status: Launch Successful

Launch date: June 23, 1970, 2:15 p.m. UTC

Rocket: Vostok 8A92M

Launch pad: 41/1

Location: Plesetsk Cosmodrome, Russian Federation

...

Latest news about this satellite

There are no fresh news available about this satellite. Check back as we update our databases every day.


Newsletter sign-up

Weekly statistics, charts and insights to help you stay on top of the space industry.